| time (UTC) | temp F | wind direction | speed MPH | gust MPH | rain 1hr in | rain 24hr in | rain mn in | humidity % | barometer mb |
| 20260506221915 | 71 | 304 | 6.0 | 10.0 | 0.00 | 0.00 | 0.00 | 60 | 1018.5 |
| 20260506221355 | 71 | 257 | 7.0 | 12.0 | 0.00 | 0.00 | 0.00 | 61 | 1018.5 |
| 20260506220833 | 71 | 237 | 4.0 | 11.0 | 0.00 | 0.00 | 0.00 | 60 | 1018.6 |
| 20260506215603 | 72 | 267 | 4.0 | 9.0 | 0.00 | 0.00 | 0.00 | 60 | 1018.8 |
| 20260506215043 | 72 | 211 | 3.0 | 9.0 | 0.00 | 0.00 | 0.00 | 59 | 1018.8 |
| 20260506213813 | 73 | 283 | 5.0 | 10.0 | 0.00 | 0.00 | 0.00 | 57 | 1018.9 |
| 20260506213251 | 73 | 234 | 2.0 | 8.0 | 0.00 | 0.00 | 0.00 | 58 | 1018.8 |
| 20260506212729 | 73 | 282 | 1.0 | 7.0 | 0.00 | 0.00 | 0.00 | 60 | 1018.9 |
| 20260506212207 | 73 | 322 | 3.0 | 7.0 | 0.00 | 0.00 | 0.00 | 59 | 1019.0 |
| 20260506210939 | 73 | 316 | 2.0 | 7.0 | 0.00 | 0.00 | 0.00 | 59 | 1019.1 |
| 20260506210417 | 73 | 305 | 3.0 | 7.0 | 0.00 | 0.00 | 0.00 | 58 | 1019.1 |
| 20260506205855 | 73 | 310 | 3.0 | 9.0 | 0.00 | 0.00 | 0.00 | 57 | 1019.1 |
| 20260506204625 | 73 | 332 | 3.0 | 6.0 | 0.00 | 0.00 | 0.00 | 57 | 1019.2 |
| 20260506204103 | 72 | 315 | 1.0 | 6.0 | 0.00 | 0.00 | 0.00 | 59 | 1019.3 |
| 20260506203541 | 72 | 321 | 3.0 | 7.0 | 0.00 | 0.00 | 0.00 | 58 | 1019.4 |
| 20260506203019 | 72 | 316 | 3.0 | 6.0 | 0.00 | 0.00 | 0.00 | 58 | 1019.5 |
| 20260506202457 | 72 | 292 | 2.0 | 7.0 | 0.00 | 0.00 | 0.00 | 58 | 1019.5 |
| 20260506200519 | 71 | 336 | 3.0 | 7.0 | 0.00 | 0.00 | 0.00 | 60 | 1019.8 |
| 20260506195957 | 70 | 288 | 3.0 | 6.0 | 0.00 | 0.00 | 0.00 | 62 | 1019.8 |
| 20260506195435 | 70 | 305 | 2.0 | 5.0 | 0.00 | 0.00 | 0.00 | 61 | 1019.8 |
| 20260506194913 | 70 | 357 | 2.0 | 6.0 | 0.00 | 0.00 | 0.00 | 61 | 1019.9 |
| 20260506194351 | 70 | 335 | 3.0 | 7.0 | 0.00 | 0.00 | 0.00 | 61 | 1019.9 |
| 20260506193829 | 69 | 314 | 2.0 | 5.0 | 0.00 | 0.00 | 0.00 | 62 | 1020.0 |
| 20260506193307 | 69 | 265 | 3.0 | 6.0 | 0.00 | 0.00 | 0.00 | 62 | 1020.1 |
| 20260506192037 | 68 | 327 | 3.0 | 7.0 | 0.00 | 0.00 | 0.00 | 63 | 1020.2 |
| 20260506191515 | 68 | 192 | 2.0 | 6.0 | 0.00 | 0.00 | 0.00 | 64 | 1020.3 |
| 20260506190245 | 68 | 317 | 3.0 | 8.0 | 0.00 | 0.00 | 0.00 | 63 | 1020.4 |
| 20260506185725 | 68 | 279 | 3.0 | 5.0 | 0.00 | 0.00 | 0.00 | 63 | 1020.5 |
| 20260506185203 | 68 | 88 | 1.0 | 5.0 | 0.00 | 0.00 | 0.00 | 64 | 1020.4 |
| 20260506184641 | 68 | 119 | 2.0 | 6.0 | 0.00 | 0.00 | 0.00 | 65 | 1020.4 |
| 20260506184121 | 68 | 213 | 2.0 | 4.0 | 0.00 | 0.00 | 0.00 | 66 | 1020.5 |
| 20260506183559 | 67 | 236 | 2.0 | 6.0 | 0.00 | 0.00 | 0.00 | 67 | 1020.5 |
| 20260506182329 | 67 | 128 | 2.0 | 5.0 | 0.00 | 0.00 | 0.00 | 67 | 1020.6 |
| 20260506181809 | 66 | 222 | 3.0 | 5.0 | 0.00 | 0.00 | 0.00 | 68 | 1020.6 |
| 20260506181247 | 66 | 79 | 2.0 | 4.0 | 0.00 | 0.00 | 0.00 | 69 | 1020.6 |
| 20260506180725 | 66 | 348 | 2.0 | 4.0 | 0.00 | 0.00 | 0.00 | 69 | 1020.6 |
| 20260506175455 | 65 | 316 | 1.0 | 5.0 | 0.00 | 0.00 | 0.00 | 71 | 1020.6 |
| 20260506174933 | 64 | 301 | 1.0 | 5.0 | 0.00 | 0.00 | 0.00 | 71 | 1020.5 |
| 20260506174413 | 64 | 285 | 2.0 | 4.0 | 0.00 | 0.00 | 0.00 | 72 | 1020.6 |
| 20260506173851 | 63 | 121 | 1.0 | 4.0 | 0.00 | 0.00 | 0.00 | 72 | 1020.6 |
| 20260506173329 | 63 | 299 | 2.0 | 4.0 | 0.00 | 0.00 | 0.00 | 72 | 1020.6 |
| 20260506171351 | 63 | 28 | 2.0 | 4.0 | 0.00 | 0.00 | 0.00 | 74 | 1020.7 |
| 20260506170121 | 62 | 311 | 1.0 | 2.0 | 0.00 | 0.00 | 0.00 | 74 | 1020.8 |
| 20260506165600 | 61 | 0 | 0.0 | 2.0 | 0.00 | 0.00 | 0.00 | 74 | 1020.8 |
| 20260506164331 | 61 | 0 | 0.0 | 2.0 | 0.00 | 0.00 | 0.00 | 75 | 1020.7 |
| 20260506163809 | 61 | 0 | 0.0 | 4.0 | 0.00 | 0.00 | 0.00 | 75 | 1020.8 |
| 20260506163247 | 61 | 313 | 1.0 | 3.0 | 0.00 | 0.00 | 0.00 | 75 | 1020.8 |
| 20260506162017 | 60 | 292 | 1.0 | 3.0 | 0.00 | 0.00 | 0.00 | 77 | 1020.8 |
| 20260506160747 | 60 | 0 | 0.0 | 1.0 | 0.00 | 0.00 | 0.00 | 78 | 1020.8 |
| 20260506160227 | 59 | 0 | 0.0 | 0.0 | 0.00 | 0.00 | 0.00 | 79 | 1020.8 |
| 20260506155705 | 59 | 0 | 0.0 | 0.0 | 0.00 | 0.00 | 0.00 | 79 | 1020.8 |
| 20260506155143 | 59 | 300 | 1.0 | 3.0 | 0.00 | 0.00 | 0.00 | 80 | 1020.8 |
| 20260506154623 | 59 | 297 | 1.0 | 3.0 | 0.00 | 0.00 | 0.00 | 80 | 1020.7 |
| 20260506154101 | 58 | 294 | 1.0 | 3.0 | 0.00 | 0.00 | 0.00 | 81 | 1020.7 |
| 20260506153541 | 58 | 298 | 1.0 | 4.0 | 0.00 | 0.00 | 0.00 | 81 | 1020.7 |
| 20260506153021 | 58 | 246 | 1.0 | 5.0 | 0.00 | 0.00 | 0.00 | 82 | 1020.7 |
| 20260506151751 | 58 | 273 | 1.0 | 3.0 | 0.00 | 0.00 | 0.00 | 84 | 1020.6 |
| 20260506151229 | 57 | 273 | 1.0 | 4.0 | 0.00 | 0.00 | 0.00 | 85 | 1020.6 |
| 20260506150707 | 57 | 271 | 1.0 | 2.0 | 0.00 | 0.00 | 0.00 | 85 | 1020.7 |
| 20260506150145 | 57 | 271 | 1.0 | 3.0 | 0.00 | 0.00 | 0.00 | 85 | 1020.7 |
| 20260506145623 | 57 | 256 | 1.0 | 2.0 | 0.00 | 0.00 | 0.00 | 86 | 1020.6 |
| 20260506145101 | 57 | 0 | 0.0 | 1.0 | 0.00 | 0.00 | 0.00 | 86 | 1020.6 |
| 20260506144539 | 56 | 0 | 0.0 | 3.0 | 0.00 | 0.00 | 0.00 | 86 | 1020.6 |
| 20260506144017 | 56 | 256 | 1.0 | 4.0 | 0.00 | 0.00 | 0.00 | 87 | 1020.6 |
| 20260506143457 | 56 | 258 | 1.0 | 2.0 | 0.00 | 0.00 | 0.00 | 87 | 1020.6 |
| 20260506142937 | 56 | 258 | 1.0 | 2.0 | 0.00 | 0.00 | 0.00 | 87 | 1020.5 |
| 20260506141707 | 56 | 0 | 0.0 | 0.0 | 0.00 | 0.00 | 0.00 | 87 | 1020.5 |
| 20260506141145 | 56 | 0 | 0.0 | 0.0 | 0.00 | 0.00 | 0.00 | 87 | 1020.4 |
| 20260506140625 | 56 | 0 | 0.0 | 0.0 | 0.00 | 0.00 | 0.00 | 87 | 1020.3 |
| 20260506140103 | 55 | 0 | 0.0 | 0.0 | 0.00 | 0.00 | 0.00 | 87 | 1020.2 |
| 20260506135541 | 55 | 0 | 0.0 | 0.0 | 0.00 | 0.00 | 0.00 | 87 | 1020.2 |
| 20260506135019 | 55 | 0 | 0.0 | 0.0 | 0.00 | 0.00 | 0.00 | 87 | 1020.1 |
| 20260506134457 | 55 | 0 | 0.0 | 0.0 | 0.00 | 0.00 | 0.00 | 87 | 1020.1 |
| 20260506133935 | 55 | 0 | 0.0 | 0.0 | 0.00 | 0.00 | 0.00 | 87 | 1020.1 |
| 20260506133413 | 55 | 0 | 0.0 | 0.0 | 0.00 | 0.00 | 0.00 | 87 | 1020.0 |
| 20260506132143 | 55 | 0 | 0.0 | 0.0 | 0.00 | 0.00 | 0.00 | 86 | 1019.8 |
| 20260506131621 | 54 | 0 | 0.0 | 0.0 | 0.00 | 0.00 | 0.00 | 86 | 1019.7 |
| 20260506131059 | 54 | 0 | 0.0 | 0.0 | 0.00 | 0.00 | 0.00 | 86 | 1019.8 |
| 20260506130537 | 54 | 0 | 0.0 | 0.0 | 0.00 | 0.00 | 0.00 | 86 | 1019.8 |
| 20260506130015 | 54 | 0 | 0.0 | 0.0 | 0.00 | 0.00 | 0.00 | 86 | 1019.7 |
| 20260506125455 | 54 | 0 | 0.0 | 0.0 | 0.00 | 0.00 | 0.00 | 85 | 1019.7 |
| 20260506124225 | 54 | 0 | 0.0 | 0.0 | 0.00 | 0.00 | 0.00 | 85 | 1019.6 |
| 20260506123705 | 54 | 0 | 0.0 | 0.0 | 0.00 | 0.00 | 0.00 | 85 | 1019.6 |
| 20260506123143 | 54 | 0 | 0.0 | 0.0 | 0.00 | 0.00 | 0.00 | 85 | 1019.5 |
| 20260506122621 | 54 | 0 | 0.0 | 0.0 | 0.00 | 0.00 | 0.00 | 85 | 1019.6 |
| 20260506122059 | 54 | 0 | 0.0 | 0.0 | 0.00 | 0.00 | 0.00 | 85 | 1019.6 |
| 20260506121537 | 55 | 0 | 0.0 | 0.0 | 0.00 | 0.00 | 0.00 | 85 | 1019.5 |
| 20260506121017 | 55 | 0 | 0.0 | 0.0 | 0.00 | 0.00 | 0.00 | 85 | 1019.5 |
| 20260506120455 | 55 | 0 | 0.0 | 0.0 | 0.00 | 0.00 | 0.00 | 85 | 1019.5 |
| 20260506115933 | 55 | 0 | 0.0 | 0.0 | 0.00 | 0.00 | 0.00 | 85 | 1019.4 |
| 20260506115413 | 55 | 0 | 0.0 | 0.0 | 0.00 | 0.00 | 0.00 | 85 | 1019.3 |
| 20260506114143 | 55 | 0 | 0.0 | 0.0 | 0.00 | 0.01 | 0.00 | 85 | 1019.2 |
| 20260506113623 | 55 | 0 | 0.0 | 0.0 | 0.00 | 0.01 | 0.00 | 84 | 1019.2 |
| 20260506112355 | 55 | 0 | 0.0 | 0.0 | 0.00 | 0.01 | 0.00 | 84 | 1019.1 |
| 20260506111835 | 55 | 0 | 0.0 | 0.0 | 0.00 | 0.01 | 0.00 | 84 | 1019.1 |
| 20260506111313 | 55 | 0 | 0.0 | 0.0 | 0.00 | 0.01 | 0.00 | 84 | 1019.1 |
| 20260506110751 | 56 | 0 | 0.0 | 0.0 | 0.00 | 0.01 | 0.00 | 84 | 1019.1 |
| 20260506110229 | 56 | 0 | 0.0 | 0.0 | 0.00 | 0.01 | 0.00 | 84 | 1019.1 |
| 20260506105709 | 56 | 0 | 0.0 | 0.0 | 0.00 | 0.01 | 0.00 | 84 | 1019.0 |
| 20260506105149 | 56 | 0 | 0.0 | 0.0 | 0.00 | 0.01 | 0.00 | 84 | 1019.1 |
| 20260506104627 | 56 | 0 | 0.0 | 0.0 | 0.00 | 0.01 | 0.00 | 84 | 1019.0 |
| 20260506104105 | 56 | 0 | 0.0 | 0.0 | 0.00 | 0.01 | 0.00 | 83 | 1019.0 |
| 20260506103543 | 56 | 0 | 0.0 | 0.0 | 0.00 | 0.01 | 0.00 | 83 | 1018.9 |
| 20260506101607 | 56 | 0 | 0.0 | 0.0 | 0.00 | 0.02 | 0.00 | 83 | 1018.8 |
| 20260506101047 | 56 | 0 | 0.0 | 0.0 | 0.00 | 0.02 | 0.00 | 83 | 1018.9 |
| 20260506100527 | 56 | 0 | 0.0 | 0.0 | 0.00 | 0.02 | 0.00 | 83 | 1018.8 |
| 20260506100005 | 56 | 0 | 0.0 | 0.0 | 0.00 | 0.02 | 0.00 | 83 | 1018.8 |
| 20260506095443 | 56 | 0 | 0.0 | 0.0 | 0.00 | 0.02 | 0.00 | 83 | 1018.8 |
| 20260506094923 | 56 | 0 | 0.0 | 0.0 | 0.00 | 0.02 | 0.00 | 83 | 1018.8 |
| 20260506094401 | 56 | 0 | 0.0 | 0.0 | 0.00 | 0.02 | 0.00 | 82 | 1018.8 |
| 20260506093841 | 56 | 0 | 0.0 | 0.0 | 0.00 | 0.02 | 0.00 | 82 | 1019.0 |
| 20260506092613 | 57 | 0 | 0.0 | 0.0 | 0.00 | 0.02 | 0.00 | 82 | 1018.9 |
| 20260506092053 | 57 | 0 | 0.0 | 0.0 | 0.00 | 0.02 | 0.00 | 82 | 1018.9 |
| 20260506091531 | 57 | 0 | 0.0 | 0.0 | 0.00 | 0.02 | 0.00 | 82 | 1018.8 |
| 20260506090301 | 57 | 0 | 0.0 | 0.0 | 0.00 | 0.03 | 0.00 | 82 | 1018.8 |
| 20260506085741 | 57 | 0 | 0.0 | 0.0 | 0.00 | 0.03 | 0.00 | 82 | 1018.8 |
| 20260506085219 | 57 | 0 | 0.0 | 0.0 | 0.00 | 0.03 | 0.00 | 82 | 1018.8 |
| 20260506083951 | 57 | 0 | 0.0 | 0.0 | 0.00 | 0.04 | 0.00 | 82 | 1018.8 |
| 20260506083431 | 57 | 0 | 0.0 | 0.0 | 0.00 | 0.04 | 0.00 | 82 | 1018.9 |
| 20260506082200 | 57 | 0 | 0.0 | 0.0 | 0.00 | 0.04 | 0.00 | 82 | 1019.0 |
| 20260506080931 | 57 | 0 | 0.0 | 1.0 | 0.00 | 0.04 | 0.00 | 82 | 1018.9 |
| 20260506080411 | 57 | 0 | 0.0 | 2.0 | 0.00 | 0.04 | 0.00 | 82 | 1018.9 |
| 20260506073353 | 57 | 0 | 0.0 | 0.0 | 0.00 | 0.05 | 0.00 | 83 | 1018.7 |
| 20260506072832 | 57 | 0 | 0.0 | 0.0 | 0.00 | 0.05 | 0.00 | 83 | 1018.6 |
| 20260506071605 | 57 | 0 | 0.0 | 0.0 | 0.00 | 0.05 | 0.00 | 83 | 1018.7 |
| 20260506071043 | 57 | 0 | 0.0 | 0.0 | 0.00 | 0.05 | 0.00 | 83 | 1018.6 |
| 20260506070523 | 57 | 0 | 0.0 | 0.0 | 0.00 | 0.05 | 0.00 | 83 | 1018.5 |
| 20260506061900 | 57 | 0 | 0.0 | 0.0 | 0.00 | 0.05 | 0.05 | 82 | 1018.3 |
| 20260506061338 | 57 | 261 | 1.0 | 1.0 | 0.00 | 0.05 | 0.05 | 82 | 1018.3 |
| 20260506060110 | 57 | 0 | 0.0 | 2.0 | 0.00 | 0.05 | 0.05 | 82 | 1018.1 |
| 20260506051257 | 57 | 270 | 1.0 | 3.0 | 0.00 | 0.05 | 0.05 | 80 | 1017.8 |
| 20260506050737 | 57 | 267 | 1.0 | 2.0 | 0.00 | 0.05 | 0.05 | 80 | 1017.8 |
| 20260506044759 | 58 | 267 | 1.0 | 3.0 | 0.00 | 0.05 | 0.05 | 79 | 1017.6 |
| 20260506044238 | 58 | 271 | 1.0 | 3.0 | 0.00 | 0.05 | 0.05 | 79 | 1017.6 |
| 20260506043717 | 58 | 256 | 1.0 | 4.0 | 0.00 | 0.05 | 0.05 | 79 | 1017.5 |
| 20260506043155 | 58 | 273 | 1.0 | 3.0 | 0.00 | 0.05 | 0.05 | 79 | 1017.5 |
| 20260506042635 | 58 | 335 | 1.0 | 3.0 | 0.00 | 0.05 | 0.05 | 78 | 1017.5 |
| 20260506041405 | 58 | 328 | 2.0 | 5.0 | 0.00 | 0.05 | 0.05 | 78 | 1017.3 |
| 20260506040138 | 58 | 288 | 1.0 | 5.0 | 0.00 | 0.05 | 0.05 | 77 | 1017.1 |
| 20260506034908 | 58 | 297 | 1.0 | 3.0 | 0.00 | 0.05 | 0.05 | 77 | 1016.9 |
| 20260506034346 | 58 | 301 | 2.0 | 4.0 | 0.00 | 0.05 | 0.05 | 76 | 1016.9 |
| 20260506033823 | 59 | 242 | 1.0 | 4.0 | 0.00 | 0.05 | 0.05 | 76 | 1016.8 |
| 20260506033302 | 59 | 244 | 3.0 | 5.0 | 0.00 | 0.05 | 0.05 | 76 | 1016.8 |
| 20260506032739 | 59 | 269 | 1.0 | 6.0 | 0.00 | 0.05 | 0.05 | 76 | 1016.7 |
| 20260506032218 | 59 | 263 | 1.0 | 5.0 | 0.00 | 0.05 | 0.05 | 75 | 1016.5 |
| 20260506031657 | 59 | 181 | 1.0 | 6.0 | 0.00 | 0.05 | 0.05 | 75 | 1016.6 |
| 20260506031137 | 59 | 226 | 2.0 | 6.0 | 0.00 | 0.05 | 0.05 | 75 | 1016.6 |
| 20260506030618 | 59 | 260 | 2.0 | 5.0 | 0.00 | 0.05 | 0.05 | 74 | 1016.5 |
| 20260506025348 | 60 | 265 | 2.0 | 5.0 | 0.00 | 0.05 | 0.05 | 74 | 1016.4 |
| 20260506023409 | 60 | 273 | 1.0 | 5.0 | 0.00 | 0.05 | 0.05 | 73 | 1016.1 |
| 20260506022848 | 61 | 261 | 1.0 | 7.0 | 0.00 | 0.05 | 0.05 | 73 | 1016.0 |
| 20260506022325 | 61 | 270 | 2.0 | 6.0 | 0.00 | 0.05 | 0.05 | 72 | 1015.9 |
| 20260506021805 | 61 | 244 | 2.0 | 10.0 | 0.00 | 0.05 | 0.05 | 72 | 1015.9 |
| 20260506021245 | 61 | 254 | 4.0 | 8.0 | 0.00 | 0.05 | 0.05 | 72 | 1015.9 |
| 20260506020724 | 61 | 247 | 2.0 | 9.0 | 0.00 | 0.05 | 0.05 | 72 | 1016.0 |
| 20260506020203 | 61 | 254 | 2.0 | 5.0 | 0.00 | 0.05 | 0.05 | 71 | 1015.9 |
| 20260506015642 | 62 | 291 | 2.0 | 6.0 | 0.00 | 0.05 | 0.05 | 71 | 1015.9 |
| 20260506014412 | 62 | 254 | 2.0 | 7.0 | 0.00 | 0.05 | 0.05 | 71 | 1015.8 |
| 20260506013849 | 62 | 267 | 1.0 | 6.0 | 0.00 | 0.05 | 0.05 | 71 | 1015.7 |
| 20260506013330 | 62 | 218 | 1.0 | 5.0 | 0.00 | 0.05 | 0.05 | 71 | 1015.8 |
| 20260506012809 | 62 | 268 | 1.0 | 4.0 | 0.00 | 0.05 | 0.05 | 71 | 1015.8 |
| 20260506012248 | 62 | 213 | 1.0 | 5.0 | 0.00 | 0.05 | 0.05 | 71 | 1015.8 |
| 20260506011726 | 62 | 251 | 1.0 | 4.0 | 0.00 | 0.05 | 0.05 | 71 | 1015.8 |
| 20260506011203 | 62 | 288 | 1.0 | 10.0 | 0.00 | 0.05 | 0.05 | 70 | 1015.7 |
| 20260506010643 | 62 | 211 | 2.0 | 7.0 | 0.00 | 0.05 | 0.05 | 70 | 1015.7 |
| 20260506010122 | 62 | 205 | 2.0 | 5.0 | 0.00 | 0.05 | 0.05 | 70 | 1015.7 |
| 20260506005600 | 62 | 282 | 1.0 | 5.0 | 0.00 | 0.05 | 0.05 | 70 | 1015.7 |
| 20260506005037 | 62 | 305 | 2.0 | 6.0 | 0.00 | 0.05 | 0.05 | 70 | 1015.7 |
| 20260506003809 | 62 | 269 | 1.0 | 6.0 | 0.00 | 0.05 | 0.05 | 70 | 1015.6 |
| 20260506003249 | 62 | 208 | 2.0 | 6.0 | 0.00 | 0.05 | 0.05 | 70 | 1015.6 |
| 20260506001309 | 62 | 281 | 3.0 | 9.0 | 0.00 | 0.05 | 0.05 | 69 | 1015.5 |
| 20260506000040 | 63 | 248 | 2.0 | 9.0 | 0.00 | 0.05 | 0.05 | 69 | 1015.4 |
| 20260505235517 | 63 | 264 | 3.0 | 9.0 | 0.00 | 0.05 | 0.05 | 69 | 1015.4 |
| 20260505234956 | 63 | 235 | 4.0 | 8.0 | 0.00 | 0.05 | 0.05 | 69 | 1015.4 |
| 20260505234436 | 63 | 244 | 2.0 | 6.0 | 0.00 | 0.05 | 0.05 | 70 | 1015.4 |
| 20260505233915 | 63 | 290 | 3.0 | 6.0 | 0.00 | 0.05 | 0.05 | 70 | 1015.4 |
| 20260505233354 | 62 | 242 | 3.0 | 9.0 | 0.00 | 0.05 | 0.05 | 70 | 1015.5 |
| 20260505232125 | 63 | 222 | 3.0 | 8.0 | 0.00 | 0.05 | 0.05 | 69 | 1015.6 |
| 20260505225440 | 63 | 273 | 2.0 | 4.0 | 0.00 | 0.05 | 0.05 | 69 | 1015.5 |
| 20260505224917 | 63 | 283 | 3.0 | 5.0 | 0.00 | 0.05 | 0.05 | 68 | 1015.5 |
| 20260505224357 | 64 | 249 | 2.0 | 6.0 | 0.00 | 0.05 | 0.05 | 67 | 1015.5 |
| 20260505222421 | 65 | 216 | 1.0 | 6.0 | 0.00 | 0.05 | 0.05 | 65 | 1015.6 |